| time (UTC) | temp F | wind direction | speed MPH | gust MPH | rain 1hr in | rain 24hr in | rain mn in | humidity % | barometer mb |
| 20260504180537 | 82 | 172 | 10.0 | 18.0 | 0.00 | 0.00 | 0.00 | 71 | 1012.4 |
| 20260504175802 | 82 | 162 | 11.0 | 18.0 | 0.00 | 0.00 | 0.00 | 72 | 1012.5 |
| 20260504175513 | 82 | 126 | 12.0 | 24.0 | 0.00 | 0.00 | 0.00 | 72 | 1012.5 |
| 20260504174739 | 82 | 90 | 13.0 | 24.0 | 0.00 | 0.00 | 0.00 | 72 | 1012.5 |
| 20260504174231 | 82 | 178 | 12.0 | 24.0 | 0.00 | 0.00 | 0.00 | 72 | 1012.7 |
| 20260504173731 | 82 | 90 | 9.0 | 21.0 | 0.00 | 0.00 | 0.00 | 72 | 1012.7 |
| 20260504173225 | 81 | 192 | 8.0 | 21.0 | 0.00 | 0.00 | 0.00 | 72 | 1012.7 |
| 20260504172729 | 81 | 209 | 8.0 | 21.0 | 0.00 | 0.00 | 0.00 | 72 | 1013.0 |
| 20260504172450 | 81 | 199 | 8.0 | 18.0 | 0.00 | 0.00 | 0.00 | 72 | 1013.0 |
| 20260504171727 | 81 | 168 | 7.0 | 14.0 | 0.00 | 0.00 | 0.00 | 73 | 1013.0 |
| 20260504171448 | 81 | 187 | 8.0 | 14.0 | 0.00 | 0.00 | 0.00 | 73 | 1013.0 |
| 20260504170726 | 81 | 90 | 8.0 | 6.0 | 0.00 | 0.00 | 0.00 | 74 | 1013.0 |
| 20260504160304 | 78 | 205 | 7.0 | 19.0 | 0.00 | 0.00 | 0.00 | 76 | 1013.7 |
| 20260504150703 | 77 | 171 | 13.0 | 21.0 | 0.00 | 0.00 | 0.00 | 81 | 1013.6 |
| 20260504150203 | 76 | 164 | 13.0 | 22.0 | 0.00 | 0.00 | 0.00 | 81 | 1013.6 |
| 20260504141144 | 72 | 174 | 6.0 | 13.0 | 0.00 | 0.00 | 0.00 | 85 | 1013.9 |
| 20260504140124 | 70 | 151 | 5.0 | 14.0 | 0.00 | 0.00 | 0.00 | 85 | 1013.9 |
| 20260504130803 | 64 | 126 | 3.0 | 5.0 | 0.00 | 0.00 | 0.00 | 84 | 1013.5 |
| 20260504110454 | 60 | 116 | 4.0 | 6.0 | 0.00 | 0.00 | 0.00 | 82 | 1013.2 |
| 20260504100341 | 60 | 105 | 5.0 | 6.0 | 0.00 | 0.00 | 0.00 | 81 | 1013.7 |
| 20260504081751 | 60 | 95 | 5.0 | 7.0 | 0.00 | 0.00 | 0.00 | 78 | 1014.2 |
| 20260504081234 | 61 | 105 | 5.0 | 7.0 | 0.00 | 0.00 | 0.00 | 78 | 1014.5 |
| 20260504080719 | 61 | 104 | 4.0 | 6.0 | 0.00 | 0.00 | 0.00 | 78 | 1014.5 |
| 20260504080212 | 61 | 105 | 5.0 | 7.0 | 0.00 | 0.00 | 0.00 | 78 | 1014.5 |
| 20260504070202 | 61 | 119 | 4.0 | 5.0 | 0.00 | 0.00 | 0.00 | 76 | 1015.6 |
| 20260504050531 | 62 | 118 | 4.0 | 6.0 | 0.00 | 0.00 | 0.00 | 72 | 1016.7 |
| 20260504050020 | 62 | 117 | 4.0 | 5.0 | 0.00 | 0.00 | 0.00 | 72 | 1016.7 |
| 20260504045509 | 62 | 122 | 4.0 | 5.0 | 0.00 | 0.00 | 0.00 | 71 | 1017.1 |
| 20260504045004 | 62 | 124 | 4.0 | 5.0 | 0.00 | 0.00 | 0.00 | 71 | 1017.1 |
| 20260504044452 | 63 | 123 | 4.0 | 6.0 | 0.00 | 0.00 | 0.00 | 71 | 1017.0 |
| 20260504044207 | 63 | 119 | 4.0 | 7.0 | 0.00 | 0.00 | 0.00 | 71 | 1017.0 |
| 20260504043436 | 63 | 134 | 4.0 | 7.0 | 0.00 | 0.00 | 0.00 | 71 | 1017.0 |
| 20260504042925 | 63 | 130 | 4.0 | 6.0 | 0.00 | 0.00 | 0.00 | 70 | 1017.0 |
| 20260504042420 | 63 | 130 | 4.0 | 6.0 | 0.00 | 0.00 | 0.00 | 70 | 1017.0 |
| 20260504041909 | 63 | 126 | 4.0 | 5.0 | 0.00 | 0.00 | 0.00 | 70 | 1017.0 |
| 20260504041359 | 63 | 133 | 4.0 | 6.0 | 0.00 | 0.00 | 0.00 | 70 | 1017.0 |
| 20260504040849 | 64 | 116 | 4.0 | 6.0 | 0.00 | 0.00 | 0.00 | 69 | 1017.0 |
| 20260504040344 | 64 | 122 | 4.0 | 6.0 | 0.00 | 0.00 | 0.00 | 69 | 1017.0 |
| 20260504040055 | 64 | 120 | 4.0 | 5.0 | 0.00 | 0.00 | 0.00 | 69 | 1017.0 |
| 20260504035324 | 64 | 117 | 4.0 | 5.0 | 0.00 | 0.00 | 0.00 | 69 | 1017.0 |
| 20260504034813 | 64 | 122 | 4.0 | 5.0 | 0.00 | 0.00 | 0.00 | 68 | 1017.0 |
| 20260504034303 | 64 | 124 | 4.0 | 5.0 | 0.00 | 0.00 | 0.00 | 68 | 1017.1 |
| 20260504033750 | 64 | 125 | 3.0 | 5.0 | 0.00 | 0.00 | 0.00 | 68 | 1017.1 |
| 20260504033240 | 64 | 126 | 3.0 | 5.0 | 0.00 | 0.00 | 0.00 | 68 | 1017.1 |
| 20260504032730 | 64 | 123 | 3.0 | 5.0 | 0.00 | 0.00 | 0.00 | 68 | 1017.0 |
| 20260504032230 | 64 | 126 | 3.0 | 5.0 | 0.00 | 0.00 | 0.00 | 67 | 1017.0 |
| 20260504031727 | 65 | 122 | 4.0 | 5.0 | 0.00 | 0.00 | 0.00 | 67 | 1017.0 |
| 20260504031226 | 65 | 130 | 3.0 | 5.0 | 0.00 | 0.00 | 0.00 | 67 | 1016.9 |
| 20260504030729 | 65 | 141 | 3.0 | 5.0 | 0.00 | 0.00 | 0.00 | 66 | 1016.9 |
| 20260504030223 | 65 | 139 | 3.0 | 6.0 | 0.00 | 0.00 | 0.00 | 66 | 1016.9 |
| 20260504025720 | 65 | 131 | 3.0 | 6.0 | 0.00 | 0.00 | 0.00 | 66 | 1016.6 |
| 20260504025218 | 65 | 130 | 4.0 | 6.0 | 0.00 | 0.00 | 0.00 | 66 | 1016.6 |
| 20260504024714 | 65 | 138 | 4.0 | 6.0 | 0.00 | 0.00 | 0.00 | 66 | 1016.6 |
| 20260504024442 | 66 | 125 | 4.0 | 7.0 | 0.00 | 0.00 | 0.00 | 65 | 1016.6 |
| 20260504023715 | 66 | 132 | 4.0 | 7.0 | 0.00 | 0.00 | 0.00 | 65 | 1016.6 |
| 20260504023219 | 66 | 133 | 5.0 | 8.0 | 0.00 | 0.00 | 0.00 | 65 | 1016.6 |
| 20260504022711 | 66 | 90 | 5.0 | 8.0 | 0.00 | 0.00 | 0.00 | 64 | 1016.5 |
| 20260504022212 | 66 | 132 | 5.0 | 7.0 | 0.00 | 0.00 | 0.00 | 64 | 1016.5 |
| 20260504021704 | 66 | 128 | 4.0 | 7.0 | 0.00 | 0.00 | 0.00 | 64 | 1016.5 |
| 20260504021147 | 67 | 137 | 4.0 | 7.0 | 0.00 | 0.00 | 0.00 | 64 | 1016.5 |
| 20260504020148 | 67 | 134 | 4.0 | 7.0 | 0.00 | 0.00 | 0.00 | 63 | 1016.5 |
| 20260504015645 | 67 | 147 | 4.0 | 7.0 | 0.00 | 0.00 | 0.00 | 63 | 1016.6 |
| 20260504015144 | 67 | 120 | 4.0 | 7.0 | 0.00 | 0.00 | 0.00 | 62 | 1016.6 |
| 20260504014641 | 68 | 143 | 4.0 | 7.0 | 0.00 | 0.00 | 0.00 | 62 | 1016.6 |
| 20260504014145 | 68 | 145 | 4.0 | 7.0 | 0.00 | 0.00 | 0.00 | 61 | 1016.5 |
| 20260504013643 | 68 | 125 | 4.0 | 7.0 | 0.00 | 0.00 | 0.00 | 61 | 1016.5 |
| 20260504013131 | 69 | 141 | 4.0 | 6.0 | 0.00 | 0.00 | 0.00 | 61 | 1016.5 |
| 20260504012621 | 69 | 145 | 4.0 | 7.0 | 0.00 | 0.00 | 0.00 | 61 | 1016.5 |
| 20260504012113 | 70 | 139 | 4.0 | 7.0 | 0.00 | 0.00 | 0.00 | 61 | 1016.5 |
| 20260504011607 | 70 | 138 | 4.0 | 10.0 | 0.00 | 0.00 | 0.00 | 60 | 1016.5 |
| 20260504011057 | 70 | 149 | 5.0 | 10.0 | 0.00 | 0.00 | 0.00 | 60 | 1016.6 |
| 20260504010543 | 71 | 147 | 6.0 | 10.0 | 0.00 | 0.00 | 0.00 | 60 | 1016.6 |
| 20260504010037 | 71 | 151 | 7.0 | 10.0 | 0.00 | 0.00 | 0.00 | 59 | 1016.6 |
| 20260504005531 | 71 | 149 | 7.0 | 9.0 | 0.00 | 0.00 | 0.00 | 59 | 1016.5 |
| 20260504005022 | 72 | 152 | 7.0 | 11.0 | 0.00 | 0.00 | 0.00 | 59 | 1016.5 |
| 20260504004511 | 72 | 159 | 7.0 | 11.0 | 0.00 | 0.00 | 0.00 | 58 | 1016.5 |
| 20260504004003 | 73 | 155 | 8.0 | 11.0 | 0.00 | 0.00 | 0.00 | 58 | 1016.5 |
| 20260504003453 | 73 | 90 | 8.0 | 11.0 | 0.00 | 0.00 | 0.00 | 58 | 1016.5 |
| 20260504002957 | 73 | 90 | 8.0 | 12.0 | 0.00 | 0.00 | 0.00 | 57 | 1016.5 |
| 20260504002453 | 73 | 155 | 9.0 | 14.0 | 0.00 | 0.00 | 0.00 | 57 | 1016.5 |
| 20260504002232 | 74 | 149 | 9.0 | 14.0 | 0.00 | 0.00 | 0.00 | 57 | 1016.5 |
| 20260504001452 | 74 | 148 | 8.0 | 16.0 | 0.00 | 0.00 | 0.00 | 57 | 1016.5 |
| 20260504001009 | 74 | 117 | 9.0 | 16.0 | 0.00 | 0.00 | 0.00 | 56 | 1016.6 |
| 20260504000451 | 75 | 147 | 9.0 | 17.0 | 0.00 | 0.00 | 0.00 | 56 | 1016.6 |
| 20260504000000 | 75 | 141 | 9.0 | 18.0 | 0.00 | 0.00 | 0.00 | 56 | 1016.6 |
| 20260503235451 | 75 | 90 | 9.0 | 18.0 | 0.00 | 0.00 | 0.00 | 56 | 1016.6 |
| 20260503234956 | 76 | 122 | 11.0 | 20.0 | 0.00 | 0.00 | 0.00 | 56 | 1016.6 |
| 20260503234500 | 76 | 157 | 10.0 | 20.0 | 0.00 | 0.00 | 0.00 | 56 | 1016.6 |
| 20260503233954 | 76 | 154 | 9.0 | 16.0 | 0.00 | 0.00 | 0.00 | 55 | 1016.6 |
| 20260503233447 | 76 | 90 | 9.0 | 16.0 | 0.00 | 0.00 | 0.00 | 55 | 1016.6 |
| 20260503232934 | 77 | 90 | 9.0 | 17.0 | 0.00 | 0.00 | 0.00 | 55 | 1016.6 |
| 20260503232427 | 77 | 149 | 9.0 | 17.0 | 0.00 | 0.00 | 0.00 | 55 | 1016.6 |
| 20260503231921 | 77 | 147 | 9.0 | 17.0 | 0.00 | 0.00 | 0.00 | 55 | 1016.6 |
| 20260503231411 | 77 | 90 | 8.0 | 16.0 | 0.00 | 0.00 | 0.00 | 55 | 1016.7 |
| 20260503230904 | 77 | 151 | 9.0 | 17.0 | 0.00 | 0.00 | 0.00 | 55 | 1016.7 |
| 20260503230354 | 77 | 143 | 9.0 | 18.0 | 0.00 | 0.00 | 0.00 | 55 | 1016.7 |
| 20260503225840 | 78 | 114 | 9.0 | 18.0 | 0.00 | 0.00 | 0.00 | 55 | 1016.6 |
| 20260503225335 | 78 | 90 | 9.0 | 18.0 | 0.00 | 0.00 | 0.00 | 55 | 1016.6 |
| 20260503224824 | 78 | 128 | 9.0 | 19.0 | 0.00 | 0.00 | 0.00 | 55 | 1016.6 |
| 20260503224540 | 78 | 90 | 9.0 | 19.0 | 0.00 | 0.00 | 0.00 | 55 | 1016.8 |
| 20260503223808 | 78 | 157 | 11.0 | 19.0 | 0.00 | 0.00 | 0.00 | 55 | 1016.8 |
| 20260503223304 | 78 | 184 | 11.0 | 19.0 | 0.00 | 0.00 | 0.00 | 55 | 1016.8 |
| 20260503222801 | 78 | 90 | 10.0 | 23.0 | 0.00 | 0.00 | 0.00 | 55 | 1017.0 |
| 20260503222300 | 78 | 153 | 11.0 | 23.0 | 0.00 | 0.00 | 0.00 | 55 | 1017.0 |
| 20260503221800 | 79 | 90 | 13.0 | 23.0 | 0.00 | 0.00 | 0.00 | 55 | 1017.0 |
| 20260503221518 | 79 | 160 | 12.0 | 23.0 | 0.00 | 0.00 | 0.00 | 55 | 1017.1 |
| 20260503221022 | 79 | 167 | 11.0 | 22.0 | 0.00 | 0.00 | 0.00 | 55 | 1017.1 |
| 20260503215803 | 79 | 167 | 11.0 | 22.0 | 0.00 | 0.00 | 0.00 | 55 | 1017.4 |
| 20260503215304 | 80 | 183 | 11.0 | 18.0 | 0.00 | 0.00 | 0.00 | 55 | 1017.4 |
| 20260503215044 | 80 | 90 | 11.0 | 20.0 | 0.00 | 0.00 | 0.00 | 55 | 1017.4 |
| 20260503214253 | 80 | 90 | 10.0 | 20.0 | 0.00 | 0.00 | 0.00 | 55 | 1017.6 |
| 20260503213754 | 80 | 170 | 10.0 | 16.0 | 0.00 | 0.00 | 0.00 | 55 | 1017.6 |
| 20260503213250 | 80 | 152 | 11.0 | 23.0 | 0.00 | 0.00 | 0.00 | 55 | 1017.6 |
| 20260503212750 | 80 | 192 | 12.0 | 23.0 | 0.00 | 0.00 | 0.00 | 55 | 1017.8 |
| 20260503212253 | 80 | 186 | 12.0 | 23.0 | 0.00 | 0.00 | 0.00 | 55 | 1017.8 |
| 20260503211800 | 80 | 90 | 13.0 | 23.0 | 0.00 | 0.00 | 0.00 | 54 | 1017.8 |
| 20260503211254 | 81 | 167 | 12.0 | 19.0 | 0.00 | 0.00 | 0.00 | 54 | 1017.8 |
| 20260503211022 | 81 | 141 | 11.0 | 21.0 | 0.00 | 0.00 | 0.00 | 54 | 1017.8 |
| 20260503210233 | 81 | 196 | 11.0 | 21.0 | 0.00 | 0.00 | 0.00 | 54 | 1017.8 |
| 20260503205722 | 82 | 156 | 11.0 | 21.0 | 0.00 | 0.00 | 0.00 | 54 | 1018.0 |
| 20260503205212 | 82 | 90 | 12.0 | 22.0 | 0.00 | 0.00 | 0.00 | 54 | 1018.0 |
| 20260503204701 | 82 | 90 | 11.0 | 22.0 | 0.00 | 0.00 | 0.00 | 53 | 1018.0 |
| 20260503204156 | 83 | 90 | 9.0 | 16.0 | 0.00 | 0.00 | 0.00 | 53 | 1018.2 |
| 20260503203646 | 82 | 156 | 9.0 | 16.0 | 0.00 | 0.00 | 0.00 | 53 | 1018.2 |
| 20260503203145 | 82 | 160 | 8.0 | 16.0 | 0.00 | 0.00 | 0.00 | 53 | 1018.2 |
| 20260503202639 | 82 | 110 | 8.0 | 16.0 | 0.00 | 0.00 | 0.00 | 53 | 1018.3 |
| 20260503202145 | 82 | 160 | 8.0 | 16.0 | 0.00 | 0.00 | 0.00 | 53 | 1018.3 |
| 20260503201905 | 82 | 90 | 7.0 | 14.0 | 0.00 | 0.00 | 0.00 | 53 | 1018.3 |
| 20260503201142 | 82 | 90 | 6.0 | 11.0 | 0.00 | 0.00 | 0.00 | 53 | 1018.5 |
| 20260503200642 | 82 | 153 | 6.0 | 13.0 | 0.00 | 0.00 | 0.00 | 54 | 1018.5 |
| 20260503200144 | 82 | 90 | 6.0 | 13.0 | 0.00 | 0.00 | 0.00 | 54 | 1018.5 |
| 20260503195642 | 81 | 107 | 7.0 | 11.0 | 0.00 | 0.00 | 0.00 | 54 | 1018.8 |
| 20260503195140 | 81 | 151 | 6.0 | 15.0 | 0.00 | 0.00 | 0.00 | 54 | 1018.8 |
| 20260503194637 | 80 | 90 | 5.0 | 15.0 | 0.00 | 0.00 | 0.00 | 54 | 1018.8 |
| 20260503194127 | 80 | 131 | 5.0 | 11.0 | 0.00 | 0.00 | 0.00 | 55 | 1019.0 |
| 20260503193114 | 79 | 99 | 5.0 | 11.0 | 0.00 | 0.00 | 0.00 | 55 | 1019.0 |
| 20260503192554 | 79 | 103 | 4.0 | 10.0 | 0.00 | 0.00 | 0.00 | 55 | 1019.2 |
| 20260503192042 | 79 | 14 | 5.0 | 9.0 | 0.00 | 0.00 | 0.00 | 55 | 1019.2 |
| 20260503191532 | 79 | 66 | 4.0 | 12.0 | 0.00 | 0.00 | 0.00 | 55 | 1019.2 |
| 20260503191020 | 79 | 101 | 4.0 | 12.0 | 0.00 | 0.00 | 0.00 | 56 | 1019.4 |
| 20260503190521 | 79 | 103 | 6.0 | 12.0 | 0.00 | 0.00 | 0.00 | 56 | 1019.4 |
| 20260503190024 | 78 | 70 | 6.0 | 12.0 | 0.00 | 0.00 | 0.00 | 56 | 1019.4 |
| 20260503185522 | 79 | 101 | 5.0 | 10.0 | 0.00 | 0.00 | 0.00 | 57 | 1019.7 |
| 20260503185022 | 79 | 85 | 4.0 | 10.0 | 0.00 | 0.00 | 0.00 | 57 | 1019.7 |
| 20260503184518 | 79 | 72 | 4.0 | 10.0 | 0.00 | 0.00 | 0.00 | 57 | 1019.7 |
| 20260503184019 | 78 | 123 | 4.0 | 10.0 | 0.00 | 0.00 | 0.00 | 58 | 1019.8 |
| 20260503183519 | 78 | 55 | 5.0 | 10.0 | 0.00 | 0.00 | 0.00 | 58 | 1019.8 |
| 20260503183020 | 78 | 53 | 5.0 | 10.0 | 0.00 | 0.00 | 0.00 | 59 | 1019.8 |
| 20260503182519 | 78 | 77 | 5.0 | 11.0 | 0.00 | 0.00 | 0.00 | 59 | 1020.2 |
| 20260503182020 | 78 | 112 | 5.0 | 11.0 | 0.00 | 0.00 | 0.00 | 59 | 1020.2 |
| 20260503181520 | 78 | 103 | 6.0 | 14.0 | 0.00 | 0.00 | 0.00 | 60 | 1020.2 |
| 20260503181022 | 78 | 124 | 6.0 | 14.0 | 0.00 | 0.00 | 0.00 | 60 | 1020.2 |